Regional Weather Roundup
Issued by NWS Sioux Falls, SD

Home | Current Version | Previous Version | Text Only | Print | Product List | Glossary On
Versions: 1 2 3 4 5 6 7 8 9 10 11 12 13 14 15 16 17 18 19 20 21 22 23 24 25 26 27 28 29 30 31 32 33 34 35 36 37 38 39 40 41 42 43 44 45 46 47 48 49 50
000
ASUS43 KFSD 290810
RWRFSD

WEATHER ROUNDUP FOR SE SOUTH DAKOTA/SW MINNESOTA/NW IOWA
NATIONAL WEATHER SERVICE SIOUX FALLS SD
300 AM CDT TUE JUL 29 2014

NOTE: "FAIR" INDICATES FEW OR NO CLOUDS BELOW 12,000 FEET WITH NO
SIGNIFICANT WEATHER AND OR OBSTRUCTIONS TO VISIBILITY.


SDZ038>040-050-052>070-290900-
SOUTHEAST SOUTH DAKOTA

CITY           SKY/WX    TMP DP  RH WIND       PRES   REMARKS
CHAMBERLAIN    CLEAR     55  51  85 E3        30.24S
HURON          CLOUDY    53  51  93 CALM      30.22S
MADISON        FAIR      48  48 100 NW5       30.23S
MITCHELL       CLEAR     54  51  90 NW3       30.22F
SIOUX FALLS    CLEAR     53  52  96 CALM      30.22S
WINNER         FAIR      60  50  69 S8        30.23F
YANKTON        CLEAR     57  52  82 CALM      30.22S
$$

MNZ071-072-080-081-089-090-097-098-290900-
SOUTHWEST MINNESOTA

CITY           SKY/WX    TMP DP  RH WIND       PRES   REMARKS
FAIRMONT       CLEAR     57  48  72 NW7       30.18S
JACKSON        CLEAR     55  50  82 NW5       30.20S
LUVERNE        CLEAR     54  50  87 CALM      30.22S
MARSHALL       CLEAR     54  48  82 W8        30.19S
MONTEVIDEO     CLEAR     55  54  94 NW7       30.19F
PIPESTONE      CLEAR     55  52  88 CALM      30.22S
REDWOOD FALLS  CLEAR     55  53  93 W8        30.17F
TRACY          CLEAR     58  52  80 W6        30.21S
WINDOM         CLEAR     54  52  94 W5        30.20S
WORTHINGTON    CLEAR     52  48  87 NW6       30.22S
$$

IAZ001>003-012>014-020>022-031-032-NEZ013-014-SDZ071-290900-
NORTHWEST IOWA

CITY           SKY/WX    TMP DP  RH WIND       PRES   REMARKS
CHEROKEE       CLEAR     54  54 100 CALM      30.20S
DENISON        CLEAR     55  55 100 CALM      30.19S
ESTHERVILLE    CLEAR     55  52  89 NW7       30.18F
LE MARS        CLEAR     54  52  94 CALM      30.21S
ORANGE CITY    CLEAR     61  52  72 CALM      30.21S
SHELDON        CLEAR     50  50 100 CALM      30.20F
SIOUX CITY     CLEAR     56  54  93 CALM      30.21S
SPENCER        CLEAR     50  48  93 W7        30.20F
STORM LAKE     CLEAR     55  55 100 N6        30.21S
$$

ABBREVIATIONS USED IN REMARKS
   TC - TEMPERATURE IN CELSIUS
  WCI - WIND CHILL INDEX
   HX - HEAT INDEX
  VSB - VISIBILITY



USA.gov is the U.S. government's official web portal to all federal, state and local government web resources and services.